Location: Chevoux
(46.3801°N, 4.9476°E)
Time: 21:27:20
(UTC+00:00)

CZ-2C R/B - Pass Details

Date: 28 January 2021
Orbit: 704 x 908 km, 98.1° (Epoch: 03 March)

Event Time Altitude Azimuth Distance (km) Brightness Sun altitude
Rises 18:07:32 0° 171° (S) 3,349 6.3 -15.3°
Reaches altitude 10° 18:09:51 10° 174° (S) 2,449 5.7 -15.7°
Maximum altitude 18:15:18 71° 258° (WSW) 921 3.6 -16.7°
Drops below altitude 10° 18:21:03 10° 343° (NNW) 2,574 5.8 -17.6°
Sets 18:23:32 0° 345° (NNW) 3,533 6.5 -18.1°
